Probability
0 0 0 0 0 0 0 0 0 0 0 0 0 0 0 0 0 0 0 0 0 0 0 0 0 1 0 1 2 4 6 6 5 4 3 2 1 0 0 0 0 0 0 0
0 0 0 0 0 0 0 0 0 0 0 0 0 0 0 0 0 0 0 0 0 0 0 0 1 1 1 1 2 4 5 6 5 4 3 2 1 0 0 0 0 0 0 0
0 0 0 0 0 0 0 0 0 0 0 0 0 0 0 0 0 0 0 0 0 0 0 0 1 2 1 0 1 3 4 6 6 5 4 3 2 0 0 0 0 0 0 0
0 0 0 0 0 0 0 0 0 0 0 0 0 0 0 0 0 0 0 0 0 0 0 0 1 2 2 1 1 2 4 5 6 7 6 4 2 1 0 1 0 0 0 0
0 0 0 0 0 0 0 0 0 0 0 0 0 0 0 0 0 0 0 0 0 0 0 0 1 2 3 2 1 2 3 4 6 9 9 6 3 1 0 0 0 0 0 0
0 0 0 0 0 0 0 0 0 0 0 0 0 0 0 0 0 0 0 0 0 0 0 0 1 2 3 3 3 2 2 2 5 8 10 8 5 3 1 0 0 0 0 0
0 0 0 0 0 0 0 0 0 0 0 0 0 0 0 0 0 0 0 0 0 0 0 0 0 1 2 4 4 3 1 1 3 6 7 7 6 4 3 1 1 0 0 0
0 0 0 0 0 0 0 0 0 0 0 0 0 0 0 0 0 0 0 0 0 0 0 0 0 0 2 4 5 5 2 1 2 3 4 5 6 6 4 2 1 0 0 0
0 0 0 0 0 0 0 0 0 0 0 0 0 0 0 0 0 0 0 0 0 0 0 0 0 0 1 3 5 6 5 3 2 2 3 4 4 4 3 2 1 0 0 0
0 0 0 0 0 0 0 0 0 0 0 0 0 0 0 0 0 0 0 0 0 0 0 0 0 0 0 1 4 5 5 4 3 2 2 3 3 3 3 2 1 0 0 0
0 0 0 0 0 0 0 0 0 0 0 0 0 0 0 0 0 0 0 0 0 0 0 0 0 0 0 1 2 4 4 4 3 1 1 1 2 3 3 3 2 1 0 0
0 0 0 0 0 0 0 0 0 0 0 0 0 0 0 0 0 0 0 0 0 0 0 0 0 0 0 0 1 2 3 3 3 1 1 1 1 1 2 3 2 1 0 0
0 0 0 0 0 0 0 0 0 0 0 0 0 0 0 0 0 0 0 0 0 0 0 0 0 0 0 0 0 1 3 3 3 3 2 2 1 0 1 1 2 2 1 1
0 0 0 0 0 0 0 0 0 0 0 0 0 0 0 0 0 0 0 0 0 0 0 0 0 0 0 0 0 1 2 3 3 3 3 3 1 0 0 0 1 1 2 2
0 0 0 0 0 0 0 0 0 0 0 0 0 0 0 0 0 0 0 0 0 0 0 0 0 0 0 0 0 0 1 3 3 3 3 3 2 1 1 0 1 1 2 2
0 0 0 0 0 0 0 0 0 0 0 0 0 0 0 0 0 0 0 0 0 0 0 0 0 0 0 0 0 0 1 2 3 3 3 3 2 2 1 1 2 2 2 1
0 0 0 0 0 0 0 0 0 0 0 0 0 0 0 0 0 0 0 0 0 0 0 0 0 0 0 0 0 0 0 1 1 2 2 2 1 1 1 1 2 3 2 1
0 0 0 0 0 0 0 0 0 0 0 0 0 0 0 0 0 0 0 0 0 0 0 0 0 0 0 0 0 0 0 0 0 1 1 1 0 0 0 1 2 2 1 0
0 0 0 0 0 0 0 0 0 0 0 0 0 0 0 0 0 0 0 0 0 0 0 0 0 0 0 0 0 0 0 0 0 0 0 0 0 0 0 0 1 1 0 0
0 0 0 0 0 0 0 0 0 0 0 0 0 0 0 0 0 0 0 0 0 0 0 0 0 0 0 0 0 0 0 0 0 0 0 0 0 0 0 0 0 0 0 0
0 0 0 0 0 0 0 0 0 0 0 0 0 0 0 0 0 0 0 0 0 0 0 0 0 0 0 0 0 0 0 0 0 0 0 0 0 0 0 0 0 0 0 0
0 0 0 0 0 0 0 0 0 0 0 0 0 0 0 0 0 0 0 0 0 0 0 0 0 0 0 0 0 0 0 0 0 0 0 0 0 0 0 0 0 0 0 0
0 0 0 0 0 0 0 0 0 0 0 0 0 0 0 0 0 0 0 0 0 0 0 0 0 0 0 0 0 0 0 0 0 0 0 0 0 0 0 0 0 0 0 0
0 0 0 0 0 0 0 0 0 0 0 0 0 0 0 0 0 0 0 0 0 0 0 0 0 0 0 0 0 0 0 0 0 0 0 0 0 0 0 0 0 0 0 0
0 0 0 0 0 0 0 0 0 0 0 0 0 0 0 0 0 0 0 0 0 0 0 0 0 0 0 0 0 0 0 0 0 0 0 0 0 0 0 0 0 0 0 0
0 0 0 0 0 0 0 0 0 0 0 0 0 0 0 0 0 0 0 0 0 0 0 0 0 0 0 0 0 0 0 0 0 0 0 0 0 0 0 0 0 0 0 0
Wind_Speed
4 4 9 11 10 4 5 5 6 6 4 5 9 12 11 8 6 7 8 8 8 10 9 7 8 8 8 9 10 11 12 11 10 8 8 8 8 7 6 6 7 8 8 8
4 10 8 5 7 6 5 5 5 4 3 4 7 12 10 9 9 9 9 10 10 9 7 7 7 6 8 10 11 11 12 11 11 10 8 6 6 5 5 5 6 8 8 8
10 5 6 6 7 8 9 8 6 4 4 3 3 8 7 7 7 8 9 9 9 10 10 8 7 8 8 9 10 10 12 12 12 10 6 4 3 3 4 6 7 8 9 9
7 4 5 7 8 8 10 7 6 4 2 4 2 7 7 6 8 9 10 8 9 10 9 8 7 8 8 10 9 9 10 11 11 11 9 10 9 10 10 7 7 7 8 9
7 5 6 8 8 7 4 4 5 5 5 5 4 6 9 4 7 9 9 9 10 9 8 8 7 8 7 6 6 7 8 8 9 10 11 11 10 9 6 5 6 7 7 9
4 3 6 7 4 6 3 2 2 0 2 8 9 7 10 6 8 7 8 8 8 7 7 6 5 3 3 3 3 4 6 7 8 9 10 11 11 10 7 7 7 7 6 7
4 4 3 3 4 3 4 5 2 1 4 8 5 7 10 7 8 9 8 7 6 5 4 3 2 1 2 2 3 3 5 6 6 8 9 10 11 10 11 9 8 7 6 6
4 6 6 4 6 6 8 8 7 7 6 4 3 10 8 6 5 4 4 3 2 1 2 2 2 1 1 1 2 2 3 4 5 6 7 7 8 7 7 8 7 7 6 7
5 5 2 4 3 7 6 7 4 3 1 3 7 7 7 3 3 3 2 2 2 1 1 1 1 0 0 1 1 2 2 2 3 4 4 5 5 6 6 6 6 5 5 5
2 3 3 3 1 3 5 5 4 5 5 6 6 6 5 3 3 3 3 3 3 3 2 2 2 2 2 1 1 0 1 2 2 2 3 3 4 5 5 5 5 5 5 5
2 2 2 2 6 7 4 5 4 4 4 6 6 8 5 6 4 4 4 3 3 2 2 2 2 2 2 2 2 1 0 0 1 1 1 1 2 3 3 4 4 4 4 5
3 2 3 5 4 4 5 6 6 6 5 4 5 8 2 2 2 2 4 4 4 3 2 2 2 2 2 2 2 2 1 1 1 1 1 1 1 2 2 3 4 4 4 4
2 3 0 3 3 1 3 5 6 3 3 5 6 8 3 2 3 3 3 4 3 3 3 2 2 2 2 3 2 2 2 2 2 1 1 1 1 1 2 3 3 3 3 3
1 2 5 7 5 3 5 6 7 6 6 8 11 10 8 6 6 6 5 4 3 3 3 3 3 3 3 3 3 3 3 2 2 1 1 2 2 2 2 2 3 3 3 3
2 2 4 6 6 5 7 10 10 11 11 10 10 11 10 8 7 6 5 5 5 5 5 4 3 3 3 3 3 3 3 2 2 1 2 3 2 2 2 2 2 2 2 3
2 2 2 5 6 6 8 10 12 13 11 12 11 14 9 7 5 5 5 5 5 6 5 5 4 4 4 4 3 3 3 3 2 2 3 3 2 1 1 2 2 1 2 2
3 3 1 5 4 2 9 11 10 9 7 8 13 14 7 6 6 6 5 5 6 7 6 5 5 5 5 5 4 4 3 3 2 3 3 3 2 2 2 2 1 2 2 2
5 4 2 2 0 8 9 3 6 8 9 9 10 9 7 9 7 4 4 5 6 5 5 6 6 6 5 4 3 3 2 2 2 3 3 3 3 3 2 2 2 2 2 2
6 6 4 3 4 9 10 4 4 6 8 8 11 10 8 6 3 4 4 4 4 4 5 5 5 5 4 4 3 2 3 2 3 3 4 3 3 3 3 3 3 2 2 1
4 5 4 4 5 9 9 4 3 2 7 6 7 8 6 2 3 6 4 3 4 4 4 4 4 4 3 4 2 2 3 3 4 4 4 4 3 3 4 4 3 2 2 2
2 3 6 6 7 11 8 4 1 4 8 4 3 4 4 4 6 5 4 4 4 4 5 4 4 3 4 3 2 3 4 5 4 3 4 3 3 3 3 3 2 2 2 1
7 5 6 5 7 11 5 2 5 7 5 4 3 4 4 5 6 5 5 4 4 5 5 5 4 5 4 3 2 4 5 4 3 3 3 3 3 2 2 2 1 1 2 2
8 9 7 9 10 6 4 6 5 4 5 5 4 5 5 6 6 6 5 5 4 4 4 4 4 5 4 3 3 4 5 3 2 3 3 3 3 2 2 2 2 2 2 2
6 4 5 7 9 8 7 6 5 5 6 6 5 5 5 6 6 6 6 5 5 4 4 4 4 5 5 4 3 4 4 3 2 3 3 3 2 2 1 1 2 2 3 3
8 5 6 10 10 7 7 7 7 6 4 4 4 4 5 5 6 6 6 6 5 5 4 4 4 5 6 5 4 4 4 3 3 3 3 3 2 2 1 1 2 2 3 3
7 8 8 10 8 7 7 5 4 5 5 5 5 5 4 4 6 6 6 6 5 5 5 4 5 5 5 5 5 4 4 3 3 3 3 2 2 2 1 1 1 2 2 3
Wind_Direction
177 183 207 205 204 201 183 196 225 236 243 215 235 250 257 262 262 256 253 248 241 237 238 231 221 212 204 200 197 198 196 197 190 190 194 197 206 206 206 208 204 202 203 202
177 225 220 201 208 223 222 229 243 277 281 237 252 259 256 247 244 240 240 241 242 245 246 237 227 214 205 204 203 201 200 197 194 198 198 197 195 200 206 204 208 208 206 205
205 217 185 197 206 215 230 222 222 243 318 317 296 285 259 255 245 248 243 240 240 235 235 234 225 217 213 210 207 205 204 201 199 196 184 174 174 188 201 209 214 212 207 206
227 229 192 201 209 200 234 221 213 223 243 268 226 276 271 250 256 250 248 245 244 243 236 230 224 220 216 217 209 205 204 201 199 193 186 186 197 207 213 211 211 208 207 208
223 199 199 213 213 189 216 196 199 212 216 254 239 252 275 255 250 253 247 242 242 241 235 232 227 223 222 217 210 206 203 203 198 195 194 195 205 214 211 200 202 208 210 212
240 225 204 208 203 191 176 96 49 86 169 243 220 216 268 225 223 237 243 242 243 239 236 236 238 229 225 212 202 203 198 204 200 196 197 198 204 205 201 204 208 213 214 215
237 255 244 172 164 178 158 141 146 212 219 242 199 215 249 232 226 222 233 245 244 235 229 235 249 257 247 224 209 200 197 206 201 196 200 204 206 206 207 208 211 211 214 216
194 234 217 202 188 188 193 179 181 197 215 253 220 232 252 246 253 260 256 259 288 275 240 231 228 212 222 228 220 205 201 210 204 201 206 207 208 209 214 213 210 211 216 218
196 240 239 220 203 165 179 205 192 179 223 242 240 258 294 279 288 290 297 327 318 304 297 286 318 305 240 217 217 202 196 205 206 204 203 206 208 210 213 213 212 213 214 213
173 249 256 236 193 217 187 165 150 176 187 235 255 244 235 229 238 269 287 281 288 317 336 337 341 340 335 325 311 181 171 195 208 203 205 209 210 210 210 208 213 214 213 209
158 209 281 198 197 195 178 184 187 188 192 202 246 256 220 207 213 229 252 272 275 276 281 292 312 329 331 338 342 345 292 258 272 247 231 222 225 220 214 214 217 216 215 212
179 176 237 249 256 227 203 197 184 196 226 223 245 261 240 204 258 267 280 290 290 277 276 277 290 318 323 315 312 307 302 290 269 252 230 228 236 220 221 228 230 222 219 218
158 159 175 320 310 272 218 209 202 194 197 216 229 260 281 344 329 309 297 301 304 300 295 296 293 288 293 295 293 285 282 273 262 236 220 239 245 236 237 239 237 229 223 222
132 172 192 215 236 237 249 242 220 199 218 231 235 254 276 296 306 306 307 306 304 302 295 290 286 285 287 288 284 278 277 275 266 238 219 231 243 243 245 246 243 233 220 216
101 208 235 255 264 256 253 250 237 227 224 229 246 249 259 272 279 282 287 293 300 303 299 288 280 284 292 299 302 299 292 285 271 248 242 243 241 238 246 255 257 244 222 214
133 203 254 270 266 261 268 259 243 238 240 244 260 266 266 271 269 270 275 276 278 284 284 289 292 291 284 280 283 293 296 290 278 257 255 256 244 240 247 255 258 254 236 217
176 165 198 264 281 312 263 239 230 229 229 230 246 259 274 278 270 254 254 260 267 271 276 284 284 277 273 270 269 269 272 291 285 273 275 273 262 252 248 247 240 235 241 234
180 173 189 247 2 237 245 234 217 222 235 231 246 262 259 254 260 258 253 256 269 275 284 287 286 285 283 281 280 281 286 284 274 270 271 273 261 256 250 232 228 235 228 223
196 174 173 182 232 270 284 260 203 212 247 236 244 259 264 267 289 281 280 271 267 277 284 285 285 282 287 289 291 301 297 291 280 269 263 258 247 244 239 233 231 227 213 223
189 174 171 188 212 241 253 259 243 200 260 256 239 254 265 260 266 270 286 288 287 290 294 298 306 307 301 297 296 278 280 278 269 269 269 266 253 243 240 238 231 219 201 215
160 190 203 212 230 254 256 268 146 194 247 267 242 244 240 228 239 263 290 294 292 296 301 307 307 302 295 298 277 255 263 264 275 286 282 275 264 254 249 245 234 206 181 164
189 195 207 192 220 251 247 177 203 236 263 270 268 259 250 251 261 272 281 288 298 306 312 316 309 300 302 302 276 263 264 275 290 286 281 281 276 263 245 225 219 196 175 168
210 201 200 205 224 245 226 220 235 244 260 269 270 274 263 263 267 273 277 283 289 295 303 313 307 305 311 315 298 278 286 299 301 292 281 280 286 279 244 214 205 197 188 183
247 217 216 244 253 255 257 254 254 247 252 263 266 273 277 270 275 279 282 289 296 300 308 315 312 304 307 316 313 298 302 305 283 272 278 276 268 273 266 237 210 206 204 201
223 205 225 248 260 269 259 246 251 258 259 268 277 275 276 276 282 284 287 292 295 300 306 305 297 294 299 311 316 318 312 305 288 278 274 270 257 244 239 239 236 233 235 224
210 207 218 242 238 234 255 258 248 248 258 264 270 280 285 278 280 286 285 289 292 294 300 299 295 293 298 306 306 312 311 296 278 274 269 261 251 239 226 232 289 281 265 259